Weather History for KALX - November, 2012

Change the Weather History Date:

Wednesday, November 28, 2012

  Actual Average (KAUO) Record (KAUO)
Temperature  
Mean Temperature 48 °F -  
Max Temperature 62 °F - 79 °F (1990)
Min Temperature 34 °F - 21 °F (2013)
Degree Days  
Heating Degree Days 17    
Month to date heating degree days  
Since 1 July heating degree days  
Moisture  
Dew Point 33 °F    
Average Humidity 60    
Maximum Humidity 89    
Minimum Humidity 23    
Precipitation  
Precipitation 0.00 in - 1.85 in (1976)
Month to date precipitation  
Year to date precipitation  
Sea Level Pressure  
Sea Level Pressure 30.34 in    
Wind  
Wind Speed 6 mph (North)    
Max Wind Speed 12 mph    
Max Gust Speed 10 mph    
Visibility 10 miles    
Events      
T = Trace of Precipitation, MM = Missing Value Source: NWS Daily Summary

Daily Weather History Graph

Daily Weather History Graph

Search for Another Location

Airport or City:

Trip Planner

Search our weather history database for the weather conditions in past years. The results will help you decide how hot, cold, wet, or windy it might be!

Date:

Astronomy

Nov. 28, 2012 Rise Set
Actual Time 6:26 AM CST 4:37 PM CST
Civil Twilight 5:59 AM CST 5:04 PM CST
Nautical Twilight 5:29 AM CST 5:34 PM CST
Astronomical Twilight 4:59 AM CST 6:04 PM CST
Moon 4:52 PM CST (11/28) 6:23 AM CST (11/28)
Length of Visible Light 11h 04m
Length of Day
10h 11m
Full, 100% of the Moon is Illuminated
Nov 28
Full
Dec 6
Last Quarter
Dec 13
New
Dec 19
First Quarter
Dec 28
Full

Hourly Weather History & Observations

Time (CST) Temp. Windchill Dew Point Humidity Pressure Visibility Wind Dir Wind Speed Gust Speed Precip Events Conditions
12:15 AM 49.6 °F - 43.3 °F 79% 30.27 in 10.0 mi NNW 6.9 mph - N/A   Overcast
12:35 AM 49.6 °F - 43.0 °F 78% 30.27 in 10.0 mi NNW 11.5 mph - N/A   Overcast
12:55 AM 49.6 °F - 42.8 °F 77% 30.27 in 10.0 mi North 4.6 mph 10.4 mph N/A   Overcast
1:15 AM 49.6 °F - 42.8 °F 77% 30.27 in 10.0 mi NNW 9.2 mph - N/A   Overcast
1:35 AM 49.6 °F - 42.8 °F 77% 30.28 in 10.0 mi North 11.5 mph - N/A   Overcast
1:55 AM 49.6 °F - 42.4 °F 76% 30.29 in 10.0 mi NNW 10.4 mph - N/A   Overcast
2:15 AM 49.6 °F - 42.3 °F 76% 30.29 in 10.0 mi North 9.2 mph - N/A   Overcast
2:35 AM 49.6 °F - 42.3 °F 76% 30.29 in 10.0 mi North 9.2 mph - N/A   Overcast
2:55 AM 49.6 °F - 42.1 °F 75% 30.29 in 10.0 mi North 10.4 mph - N/A   Overcast
3:15 AM 49.6 °F - 41.9 °F 75% 30.30 in 10.0 mi North 8.1 mph - N/A   Overcast
3:35 AM 49.6 °F - 41.9 °F 75% 30.30 in 10.0 mi North 8.1 mph - N/A   Overcast
3:55 AM 47.3 °F - 38.8 °F 72% 30.31 in 10.0 mi North 8.1 mph - N/A   Overcast
4:15 AM 47.3 °F - 38.8 °F 72% 30.31 in 10.0 mi NNE 4.6 mph - N/A   Overcast
4:35 AM 46.4 °F 42.9 °F 38.3 °F 73% 30.31 in 10.0 mi NNE 6.9 mph - N/A   Overcast
4:55 AM 44.6 °F 40.2 °F 36.7 °F 74% 30.33 in 10.0 mi NNW 8.1 mph - N/A   Overcast
5:15 AM 44.1 °F 41.5 °F 36.1 °F 74% 30.33 in 10.0 mi North 4.6 mph - N/A   Overcast
5:35 AM 43.5 °F 39.4 °F 36.0 °F 75% 30.34 in 10.0 mi North 6.9 mph - N/A   Overcast
5:55 AM 43.3 °F 39.9 °F 36.1 °F 76% 30.34 in 10.0 mi NNW 5.8 mph - N/A   Overcast
6:15 AM 43.3 °F 39.2 °F 35.8 °F 75% 30.34 in 10.0 mi North 6.9 mph - N/A   Overcast
6:35 AM 42.8 °F 38.6 °F 35.4 °F 75% 30.34 in 10.0 mi NNW 6.9 mph - N/A   Overcast
6:55 AM 42.1 °F 39.2 °F 35.1 °F 76% 30.35 in 10.0 mi North 4.6 mph - N/A   Overcast
7:15 AM 42.1 °F 39.2 °F 35.6 °F 78% 30.36 in 10.0 mi North 4.6 mph - N/A   Mostly Cloudy
7:35 AM 42.8 °F 38.6 °F 35.2 °F 75% 30.37 in 10.0 mi NNW 6.9 mph - N/A   Scattered Clouds
7:55 AM 43.5 °F 39.4 °F 35.2 °F 73% 30.38 in 10.0 mi North 6.9 mph - N/A   Clear
8:15 AM 44.6 °F 40.7 °F 35.8 °F 71% 30.38 in 10.0 mi North 6.9 mph - N/A   Clear
8:35 AM 46.4 °F 42.4 °F 36.9 °F 69% 30.38 in 10.0 mi North 8.1 mph - N/A   Clear
8:55 AM 47.3 °F - 36.9 °F 67% 30.38 in 10.0 mi North 9.2 mph - N/A   Clear
9:15 AM 49.6 °F - 37.4 °F 63% 30.39 in 10.0 mi North 6.9 mph - N/A   Clear
9:35 AM 49.6 °F - 36.1 °F 60% 30.39 in 10.0 mi NNE 6.9 mph - N/A   Clear
9:55 AM 49.6 °F - 35.2 °F 58% 30.39 in 10.0 mi NNW 5.8 mph - N/A   Clear
10:15 AM 52.2 °F - 35.2 °F 53% 30.39 in 10.0 mi Calm Calm - N/A   Clear
10:35 AM 54.7 °F - 36.0 °F 49% 30.39 in 10.0 mi NNW 4.6 mph - N/A   Clear
10:55 AM 54.7 °F - 33.6 °F 45% 30.39 in 10.0 mi North 6.9 mph - N/A   Clear
11:15 AM 54.7 °F - 30.6 °F 40% 30.38 in 10.0 mi North 5.8 mph - N/A   Clear
11:35 AM 57.2 °F - 30.6 °F 36% 30.37 in 10.0 mi NNW 6.9 mph - N/A   Clear
11:55 AM 57.9 °F - 27.7 °F 32% 30.36 in 10.0 mi North 8.1 mph - N/A   Clear
12:35 PM 59.9 °F - 27.1 °F 29% 30.34 in 10.0 mi NNW 8.1 mph - N/A   Clear
12:55 PM 60.6 °F - 25.3 °F 26% 30.34 in 10.0 mi NE 8.1 mph - N/A   Clear
1:15 PM 61.0 °F - 23.5 °F 24% 30.33 in 10.0 mi North 10.4 mph - N/A   Clear
1:35 PM 61.5 °F - 25.2 °F 25% 30.32 in 10.0 mi NW 4.6 mph - N/A   Clear
1:55 PM 62.2 °F - 25.5 °F 25% 30.32 in 10.0 mi North 5.8 mph - N/A   Clear
2:15 PM 62.2 °F - 24.3 °F 23% 30.31 in 10.0 mi NNW 4.6 mph - N/A   Clear
2:35 PM 61.9 °F - 23.7 °F 23% 30.32 in 10.0 mi NW 8.1 mph - N/A   Clear
2:55 PM 61.7 °F - 23.9 °F 24% 30.32 in 10.0 mi North 6.9 mph - N/A   Clear
3:15 PM 61.0 °F - 24.3 °F 25% 30.32 in 10.0 mi North 5.8 mph - N/A   Clear
3:35 PM 60.1 °F - 24.4 °F 26% 30.32 in 10.0 mi North 6.9 mph - N/A   Clear
3:55 PM 59.9 °F - 25.5 °F 27% 30.32 in 10.0 mi North 9.2 mph - N/A   Clear
4:15 PM 58.3 °F - 26.2 °F 29% 30.33 in 10.0 mi NNW 5.8 mph - N/A   Clear
4:35 PM 56.1 °F - 27.7 °F 34% 30.33 in 10.0 mi NNW 4.6 mph - N/A   Clear
4:55 PM 54.7 °F - 27.9 °F 36% 30.33 in 10.0 mi NNW 4.6 mph - N/A   Clear
5:15 PM 54.7 °F - 31.3 °F 41% 30.34 in 10.0 mi North 4.6 mph - N/A   Clear
5:35 PM 54.7 °F - 30.7 °F 40% 30.34 in 10.0 mi North 3.5 mph - N/A   Clear
5:55 PM 52.2 °F - 29.3 °F 41% 30.34 in 10.0 mi North 3.5 mph - N/A   Clear
6:15 PM 52.2 °F - 29.5 °F 42% 30.35 in 10.0 mi Calm Calm - N/A   Clear
6:35 PM 49.6 °F - 29.5 °F 46% 30.35 in 10.0 mi Calm Calm - N/A   Clear
6:55 PM 45.5 °F 44.2 °F 32.5 °F 61% 30.36 in 10.0 mi NNW 3.5 mph - N/A   Clear
7:15 PM 49.6 °F - 32.0 °F 51% 30.36 in 10.0 mi Calm Calm - N/A   Clear
7:35 PM 49.1 °F - 33.3 °F 54% 30.36 in 10.0 mi Calm Calm - N/A   Clear
7:55 PM 40.3 °F - 32.0 °F 72% 30.36 in 10.0 mi Calm Calm - N/A   Clear
8:15 PM 40.3 °F - 32.9 °F 75% 30.36 in 10.0 mi Calm Calm - N/A   Clear
8:35 PM 39.9 °F - 32.5 °F 75% 30.36 in 10.0 mi Calm Calm - N/A   Clear
8:55 PM 39.6 °F - 32.0 °F 74% 30.36 in 10.0 mi Calm Calm - N/A   Clear
9:15 PM 39.6 °F - 32.9 °F 77% 30.36 in 10.0 mi Calm Calm - N/A   Clear
9:35 PM 37.0 °F - 32.0 °F 82% 30.36 in 10.0 mi Calm Calm - N/A   Clear
9:55 PM 37.0 °F - 32.0 °F 82% 30.36 in 10.0 mi Calm Calm - N/A   Clear
10:15 PM 37.0 °F - 32.0 °F 82% 30.37 in 10.0 mi Calm Calm - N/A   Clear
10:35 PM 37.0 °F - 32.0 °F 82% 30.37 in 10.0 mi Calm Calm - N/A   Clear
10:55 PM 34.7 °F - 30.6 °F 85% 30.36 in 10.0 mi Calm Calm - N/A   Clear
11:15 PM 34.7 °F - 31.5 °F 88% 30.37 in 10.0 mi Calm Calm - N/A   Clear
11:35 PM 34.7 °F - 31.6 °F 89% 30.37 in 10.0 mi Calm Calm - N/A   Clear
11:55 PM 36.7 °F - 32.5 °F 85% 30.37 in 10.0 mi Calm Calm - N/A   Clear